Regional Weather Roundup
Issued by NWS New Orleans/Baton Rouge, LA

Home | Current Version | Previous Version | Text Only | Print | Product List | Glossary On
Versions: 1 2 3 4 5 6 7 8 9 10 11 12 13 14 15 16 17 18 19 20 21 22 23 24 25 26 27 28 29 30 31 32 33 34 35 36 37 38 39 40 41 42 43 44 45 46 47 48 49 50
000
ASUS44 KLIX 230712
RWRLIX
NEW ORLEANS REGIONAL WEATHER ROUNDUP
NATIONAL WEATHER SERVICE NEW ORLEANS LA
100 AM CST FRI FEB 23 2018

NOTE: "FAIR" INDICATES FEW OR NO CLOUDS BELOW 12,000 FEET WITH NO
      SIGNIFICANT WEATHER AND/OR OBSTRUCTIONS TO VISIBILITY.
      SKY/WX - SKY CONDITION AND SIGNIFICANT WEATHER.
      TMP - AIR TEMPERATURE.     DP    - DEWPOINT TEMPERATURE.
      RH  - RELATIVE HUMIDITY.   PRES  - PRESSURE.
      HI  - HEAT INDEX.          WCI   - WIND CHILL INDEX.

*  THESE STATIONS ARE NOT NWS OR FAA STATIONS AND ARE NOT UNDER
   NWS QUALITY CONTROL.

LAZ038-040-048-061>063-065>067-069-230800-
SOUTHEAST LOUISIANA

CITY           SKY/WX    TMP DP  RH WIND       PRES   REMARKS
N.O. INTL ARPT FAIR      72  70  93 SE8       30.28F
N.O. LAKEFRONT CLOUDY    71  68  90 SE10      30.29S
N.O. DOWNTOWN* FAIR      72  68  87 VRB5      30.29F
RESERVE*       FAIR      72  68  88 SE6       30.29S
SLIDELL        CLOUDY    71  68  90 E3        30.29F
BATON ROUGE    CLOUDY    73  68  84 SE9       30.27S
BOOTHVILLE     FAIR      67  66  97 E6        30.29F FOG
BELLE CHASSE   FAIR      72  70  93 SE10      30.28
BOGALUSA*      FAIR      70  66  87 CALM      30.31S
GALLIANO*      FAIR      73  67  83 E5        30.27F
NEW ROADS*     PTSUNNY   71  66  85 SE8       30.26F
GONZALES*      CLOUDY    71  69  93 CALM      30.27S
HAMMOND*       CLOUDY    72  68  88 SE8       30.29S
HOUMA*         FAIR      68  67  96 E5        30.27F
PORT FOURCHON* CLOUDY    73  70  88 E8        30.27F

$$

MSZ070-080>082-230800-
SOUTHERN MISSISSIPPI

CITY           SKY/WX    TMP DP  RH WIND       PRES   REMARKS
MCCOMB         CLOUDY    71  66  84 SE9       30.30S
GULFPORT       MOCLDY    70  69  97 SE6       30.30S
BILOXI         CLOUDY    71  69  93 E6        30.30F
PASCAGOULA     FOG       66  63  90 CALM      30.31F VSB 3/4

$$

COASTAL OBSERVATIONS
LAKE AND NEARSHORE STATIONS

STATION/POSITION TIME  SKY/WX   TEMP    WIND        PRES    WAVE
                                AIR SEA DIR/SP/G            HT/PER
                 (UTC)          (F)     (DEG/KT/KT) (MB)    (FT/S)
WAVELAND YACHT   0648            71 73  150/ 12/ 15 1026.1
GRAND ISLE       0648            70 72  110/  6/ 10 1025.4
SOUTHWEST PASS   0648            69 50  110/ 14/ 15 1025.8
NEW CANAL        0648            71 65  120/  3/  8 1025.4
SHELL BEACH      0648            72 77  120/ 11/ 12 1025.8

OFFSHORE STATIONS

STATION/POSITION TIME  SKY/WX   TEMP    WIND        PRES    WAVE
                                AIR SEA DIR/SP/G            HT/PER
                 (UTC)          (F)     (DEG/KT/KT) (MB)    (FT/S)
64 S DAUPHIN ISL 0650               75  110/ 14/ 16 1026.0    5/ 8

$$





USA.gov is the U.S. government's official web portal to all federal, state and local government web resources and services.